Asheville, NC

7:35 AM EDT on October 16, 2019 (GMT -0400)
Asheville Regional

Weather History for KAVL - May, 2019

Change the Weather History Date:

Tuesday, May 14, 2019

  Actual Average Record
Temperature  
Mean Temperature 57 °F 63 °F  
Max Temperature 65 °F 74 °F 89 °F (1956)
Min Temperature 48 °F 51 °F 30 °F (1895)
Degree Days  
Heating Degree Days 8 4  
Month to date heating degree days 14 68  
Since 1 July heating degree days 3541 4140  
Cooling Degree Days 0 1  
Month to date cooling degree days 35 13  
Year to date cooling degree days 52 21  
Growing Degree Days 6 (Base 50)    
Moisture  
Dew Point 39 °F    
Average Humidity 50    
Maximum Humidity 66    
Minimum Humidity 34    
Precipitation  
Precipitation 0.00 in 0.12 in 2.93 in (2009)
Month to date precipitation 3.21 1.59  
Year to date precipitation 27.00 16.18  
Snow  
Snow 0.00 in 0.00 in 0.00 in ()
Month to date snowfall 0.0 0.0  
Since 1 July snowfall 11.4 9.9  
Snow Depth 0.00 in    
Sea Level Pressure  
Sea Level Pressure 29.97 in    
Wind  
Wind Speed 13 mph (NNW)    
Max Wind Speed 26 mph    
Max Gust Speed 34 mph    
Visibility 10 miles    
Events      
T = Trace of Precipitation, MM = Missing Value Source: NWS Daily Summary

Daily Weather History Graph

Daily Weather History Graph

Search for Another Location

Airport or City:

Astronomy

May. 14, 2019 Rise Set
Actual Time 6:26 AM EDT 8:26 PM EDT
Civil Twilight 5:58 AM EDT 8:55 PM EDT
Nautical Twilight 5:24 AM EDT 9:29 PM EDT
Astronomical Twilight 4:47 AM EDT 10:06 PM EDT
Moon 3:59 PM EDT (5/14) 4:04 AM EDT (5/14)
Length of Visible Light 14h 56m
Length of Day
14h 00m
Waxing Gibbous, 79% of the Moon is Illuminated
May 14
Waxing Gibbous
May 18
Full
May 26
Last Quarter
Jun 3
New
Jun 10
First Quarter

Hourly Weather History & Observations

Time (EDT) Temp. Dew Point Humidity Pressure Visibility Wind Dir Wind Speed Gust Speed Precip Events Conditions
12:54 AM 52.0 °F 39.9 °F 63% 29.92 in 10.0 mi North 13.8 mph - N/A   Clear
1:54 AM 51.1 °F 39.9 °F 66% 29.92 in 10.0 mi NNW 11.5 mph 20.7 mph N/A   Partly Cloudy
2:54 AM 51.1 °F 39.9 °F 66% 29.90 in 10.0 mi NNW 20.7 mph 25.3 mph N/A   Scattered Clouds
3:54 AM 50.0 °F 37.9 °F 63% 29.90 in 10.0 mi NNW 17.3 mph 27.6 mph N/A   Clear
4:54 AM 48.9 °F 37.9 °F 66% 29.91 in 10.0 mi North 10.4 mph - N/A   Clear
5:54 AM 48.9 °F 37.0 °F 64% 29.91 in 10.0 mi NNW 9.2 mph 18.4 mph N/A   Clear
6:54 AM 48.0 °F 37.0 °F 66% 29.94 in 10.0 mi North 9.2 mph 17.3 mph N/A   Clear
7:54 AM 50.0 °F 39.0 °F 66% 29.96 in 10.0 mi NNW 17.3 mph 24.2 mph N/A   Clear
8:54 AM 53.1 °F 39.9 °F 61% 29.97 in 10.0 mi North 16.1 mph 28.8 mph N/A   Partly Cloudy
9:54 AM 55.9 °F 39.9 °F 55% 29.99 in 10.0 mi North 16.1 mph 27.6 mph N/A   Overcast
10:54 AM 55.9 °F 37.9 °F 51% 30.00 in 10.0 mi NNW 18.4 mph 26.5 mph N/A   Scattered Clouds
11:54 AM 60.1 °F 39.0 °F 46% 30.00 in 10.0 mi NNW 23.0 mph 29.9 mph N/A   Clear
12:54 PM 60.1 °F 37.9 °F 44% 30.01 in 10.0 mi NNW 18.4 mph 25.3 mph N/A   Clear
1:54 PM 62.1 °F 37.9 °F 41% 29.99 in 10.0 mi NNW 13.8 mph 23.0 mph N/A   Clear
2:54 PM 64.0 °F 36.0 °F 35% 29.98 in 10.0 mi North 17.3 mph 25.3 mph N/A   Clear
3:54 PM 64.0 °F 37.0 °F 37% 29.96 in 10.0 mi North 13.8 mph - N/A   Clear
4:54 PM 64.0 °F 37.9 °F 38% 29.96 in 10.0 mi North 13.8 mph 23.0 mph N/A   Clear
5:54 PM 63.0 °F 37.9 °F 40% 29.96 in 10.0 mi North 19.6 mph 24.2 mph N/A   Clear
6:54 PM 62.1 °F 37.0 °F 39% 29.96 in 10.0 mi North 13.8 mph - N/A   Clear
7:54 PM 60.1 °F 37.9 °F 44% 29.99 in 10.0 mi NNW 8.1 mph - N/A   Clear
8:54 PM 57.0 °F 39.0 °F 51% 30.01 in 10.0 mi North 8.1 mph - N/A   Clear
9:54 PM 55.9 °F 39.9 °F 55% 30.03 in 10.0 mi Calm Calm - N/A   Scattered Clouds
10:54 PM 54.0 °F 39.9 °F 59% 30.05 in 10.0 mi North 4.6 mph - N/A   Partly Cloudy
11:54 PM 54.0 °F 39.9 °F 59% 30.04 in 10.0 mi Calm Calm - N/A   Mostly Cloudy